Location: ?????????
(54.7630°N, 39.4991°E)
Time: 14:45:46
(UTC+00:00)

Cosmos 1703 Rocket - Pass Details

Date: 14 April 2026
Orbit: 598 x 626 km, 82.5° (Epoch: 17 May)

Event Time Altitude Azimuth Distance (km) Brightness Sun altitude
Rises 17:16:53 0° 345° (NNW) 2,877 7.7 -7.9°
Reaches altitude 10° 17:19:09 10° 340° (NNW) 1,965 6.9 -8.1°
Maximum altitude 17:23:22 52° 265° (W) 758 4.4 -8.7°
Drops below altitude 10° 17:27:31 10° 189° (S) 1,938 5.9 -9.2°
Sets 17:29:45 0° 185° (S) 2,834 6.7 -9.4°
